Siloam Springs, AR

9:35 AM CDT on May 30, 2017 (GMT -0500)
Smith

Weather History for KSLG - September, 2012

Change the Weather History Date:

Sunday, September 23, 2012

  Actual Average Record
Temperature  
Mean Temperature 63 °F -  
Max Temperature 73 °F 75 °F 91 °F (2005)
Min Temperature 53 °F 53 °F 42 °F (1999)
Degree Days  
Heating Degree Days 2    
Growing Degree Days 13 (Base 50)    
Moisture  
Dew Point 41 °F    
Average Humidity 48    
Maximum Humidity 72    
Minimum Humidity 36    
Precipitation  
Precipitation 0.01 in - - ()
Sea Level Pressure  
Sea Level Pressure 30.24 in    
Wind  
Wind Speed 6 mph (East)    
Max Wind Speed 10 mph    
Max Gust Speed -    
Visibility 10 miles    
Events Thunderstorm    
Averages and records for this station are not official NWS values.
T = Trace of Precipitation, MM = Missing Value Source: NWS Daily Summary

Daily Weather History Graph

Daily Weather History Graph

Search for Another Location

Airport or City:

Trip Planner

Search our weather history database for the weather conditions in past years. The results will help you decide how hot, cold, wet, or windy it might be!

Date:

Astronomy

Sep. 23, 2012 Rise Set
Actual Time 7:07 AM CDT 7:12 PM CDT
Civil Twilight 6:41 AM CDT 7:38 PM CDT
Nautical Twilight 6:11 AM CDT 8:08 PM CDT
Astronomical Twilight 5:41 AM CDT 8:38 PM CDT
Moon 3:05 PM CDT (9/23) 12:30 AM CDT (9/23)
Length of Visible Light 12h 56m
Length of Day
12h 05m
First Quarter, 60% of the Moon is Illuminated
Sep 23
First Quarter
Sep 29
Full
Oct 8
Last Quarter
Oct 15
New
Oct 21
First Quarter

Hourly Weather History & Observations

Time (CDT) Temp. Dew Point Humidity Pressure Visibility Wind Dir Wind Speed Gust Speed Precip Events Conditions
12:15 AM 60.8 °F 37.4 °F 42% 30.23 in 10.0 mi NE 8.1 mph - N/A   Clear
12:35 AM 59.0 °F 37.4 °F 45% 30.23 in 10.0 mi ENE 5.8 mph - N/A   Clear
12:55 AM 59.0 °F 35.6 °F 42% 30.23 in 10.0 mi NE 8.1 mph - N/A   Clear
1:15 AM 59.0 °F 35.6 °F 42% 30.23 in 10.0 mi NE 5.8 mph - N/A   Clear
1:35 AM 57.2 °F 35.6 °F 44% 30.23 in 10.0 mi NE 6.9 mph - N/A   Clear
1:55 AM 59.0 °F 35.6 °F 42% 30.23 in 10.0 mi ENE 6.9 mph - N/A   Clear
2:15 AM 57.2 °F 35.6 °F 44% 30.23 in 10.0 mi ENE 6.9 mph - N/A   Clear
2:35 AM 57.2 °F 35.6 °F 44% 30.24 in 10.0 mi ENE 5.8 mph - N/A   Clear
2:55 AM 57.2 °F 33.8 °F 41% 30.24 in 10.0 mi ENE 4.6 mph - N/A   Partly Cloudy
3:15 AM 57.2 °F 33.8 °F 41% 30.23 in 10.0 mi ENE 5.8 mph - N/A   Mostly Cloudy
3:35 AM 57.2 °F 35.6 °F 44% 30.23 in 10.0 mi East 4.6 mph - N/A   Scattered Clouds
3:55 AM 55.4 °F 35.6 °F 47% 30.23 in 10.0 mi ENE 4.6 mph - N/A   Mostly Cloudy
4:15 AM 55.4 °F 35.6 °F 47% 30.26 in 10.0 mi NNE 3.5 mph - N/A   Scattered Clouds
4:35 AM 53.6 °F 37.4 °F 54% 30.29 in 10.0 mi North 9.2 mph - N/A   Mostly Cloudy
4:55 AM 53.6 °F 37.4 °F 54% 30.28 in 10.0 mi North 3.5 mph - N/A   Partly Cloudy
5:15 AM 55.4 °F 37.4 °F 51% 30.25 in 10.0 mi NE 8.1 mph - N/A   Partly Cloudy
5:35 AM 55.4 °F 35.6 °F 47% 30.25 in 10.0 mi ENE 4.6 mph - N/A   Partly Cloudy
5:55 AM 53.6 °F 35.6 °F 51% 30.26 in 10.0 mi Calm Calm - N/A   Clear
6:15 AM 53.6 °F 37.4 °F 54% 30.24 in 10.0 mi East 4.6 mph - N/A   Clear
6:35 AM 53.6 °F 37.4 °F 54% 30.24 in 10.0 mi ENE 8.1 mph - N/A   Partly Cloudy
6:55 AM 53.6 °F 37.4 °F 54% 30.26 in 10.0 mi ENE 6.9 mph - N/A   Mostly Cloudy
7:15 AM 53.6 °F 37.4 °F 54% 30.26 in 10.0 mi East 5.8 mph - N/A   Mostly Cloudy
7:35 AM 55.4 °F 37.4 °F 51% 30.26 in 10.0 mi East 9.2 mph - N/A   Partly Cloudy
7:55 AM 55.4 °F 37.4 °F 51% 30.25 in 10.0 mi East 8.1 mph - N/A   Partly Cloudy
8:35 AM 57.2 °F 37.4 °F 48% 30.27 in 10.0 mi East 8.1 mph - N/A   Scattered Clouds
8:55 AM 57.2 °F 35.6 °F 44% 30.29 in 10.0 mi East 5.8 mph - N/A   Mostly Cloudy
9:15 AM 57.2 °F 37.4 °F 48% 30.32 in 10.0 mi ENE 4.6 mph - N/A   Mostly Cloudy
9:35 AM 57.2 °F 37.4 °F 48% 30.33 in 8.0 mi Calm Calm - N/A Thunderstorm Thunderstorm
9:55 AM 57.2 °F 41.0 °F 55% 30.33 in 10.0 mi South 3.5 mph - N/A   Mostly Cloudy
10:15 AM 53.6 °F 44.6 °F 72% 30.29 in 10.0 mi SE 10.4 mph - N/A   Overcast
10:35 AM 55.4 °F 42.8 °F 63% 30.26 in 10.0 mi East 4.6 mph - 0.01 in   Scattered Clouds
10:55 AM 59.0 °F 42.8 °F 55% 30.27 in 10.0 mi ESE 9.2 mph - 0.01 in   Clear
11:15 AM 60.8 °F 44.6 °F 55% 30.28 in 10.0 mi ESE 10.4 mph - N/A   Clear
11:35 AM 62.6 °F 44.6 °F 52% 30.28 in 10.0 mi ESE 8.1 mph - N/A   Clear
11:55 AM 64.4 °F 44.6 °F 49% 30.28 in 10.0 mi SE 9.2 mph - N/A   Clear
12:15 PM 64.4 °F 46.4 °F 52% 30.28 in 10.0 mi East 4.6 mph - N/A   Clear
12:35 PM 66.2 °F 46.4 °F 49% 30.29 in 10.0 mi East 4.6 mph - N/A   Clear
12:55 PM 66.2 °F 46.4 °F 49% 30.29 in 10.0 mi East 6.9 mph - N/A   Clear
1:15 PM 68.0 °F 48.2 °F 49% 30.28 in 10.0 mi East 3.5 mph - N/A   Clear
1:35 PM 69.8 °F 48.2 °F 46% 30.27 in 10.0 mi East 5.8 mph - N/A   Clear
1:55 PM 69.8 °F 48.2 °F 46% 30.26 in 10.0 mi East 4.6 mph - N/A   Clear
2:15 PM 71.6 °F 48.2 °F 43% 30.25 in 10.0 mi ENE 5.8 mph - N/A   Clear
2:35 PM 71.6 °F 46.4 °F 41% 30.24 in 10.0 mi East 5.8 mph - N/A   Clear
2:55 PM 71.6 °F 46.4 °F 41% 30.24 in 10.0 mi East 8.1 mph - N/A   Clear
3:15 PM 73.4 °F 46.4 °F 38% 30.23 in 10.0 mi East 6.9 mph - N/A   Clear
3:35 PM 73.4 °F 46.4 °F 38% 30.22 in 10.0 mi ENE 8.1 mph - N/A   Clear
3:55 PM 71.6 °F 46.4 °F 41% 30.22 in 10.0 mi NNE 8.1 mph - N/A   Clear
4:15 PM 73.4 °F 44.6 °F 36% 30.21 in 10.0 mi ENE 8.1 mph - N/A   Clear
4:35 PM 73.4 °F 44.6 °F 36% 30.21 in 10.0 mi ENE 5.8 mph - N/A   Clear
4:55 PM 73.4 °F 44.6 °F 36% 30.21 in 10.0 mi ENE 8.1 mph - N/A   Clear
5:15 PM 71.6 °F 44.6 °F 38% 30.20 in 10.0 mi ENE 5.8 mph - N/A   Clear
5:35 PM 71.6 °F 46.4 °F 41% 30.20 in 10.0 mi ENE 4.6 mph - N/A   Clear
5:55 PM 71.6 °F 46.4 °F 41% 30.20 in 10.0 mi East 4.6 mph - N/A   Clear
6:15 PM 71.6 °F 46.4 °F 41% 30.19 in 10.0 mi East 4.6 mph - N/A   Clear
6:35 PM 69.8 °F 46.4 °F 43% 30.19 in 10.0 mi ENE 4.6 mph - N/A   Clear
6:55 PM 68.0 °F 46.4 °F 46% 30.20 in 10.0 mi ENE 4.6 mph - N/A   Clear
7:15 PM 66.2 °F 44.6 °F 46% 30.20 in 10.0 mi ENE 5.8 mph - N/A   Clear
7:35 PM 66.2 °F 42.8 °F 43% 30.20 in 10.0 mi ENE 4.6 mph - N/A   Clear
7:55 PM 64.4 °F 42.8 °F 45% 30.20 in 10.0 mi East 3.5 mph - N/A   Clear
8:15 PM 64.4 °F 42.8 °F 45% 30.21 in 10.0 mi ESE 5.8 mph - N/A   Clear
8:35 PM 62.6 °F 42.8 °F 48% 30.22 in 10.0 mi East 4.6 mph - N/A   Clear
8:55 PM 62.6 °F 42.8 °F 48% 30.22 in 10.0 mi East 5.8 mph - N/A   Clear
9:15 PM 60.8 °F 42.8 °F 52% 30.22 in 10.0 mi East 3.5 mph - N/A   Clear
9:35 PM 60.8 °F 42.8 °F 52% 30.21 in 10.0 mi ENE 6.9 mph - N/A   Clear
9:55 PM 60.8 °F 42.8 °F 52% 30.22 in 10.0 mi East 4.6 mph - N/A   Clear
10:15 PM 60.8 °F 42.8 °F 52% 30.22 in 10.0 mi East 5.8 mph - N/A   Clear
10:35 PM 60.8 °F 42.8 °F 52% 30.22 in 10.0 mi ESE 4.6 mph - N/A   Clear
10:55 PM 59.0 °F 42.8 °F 55% 30.22 in 10.0 mi East 4.6 mph - N/A   Clear
11:15 PM 59.0 °F 42.8 °F 55% 30.21 in 10.0 mi ESE 5.8 mph - N/A   Clear
11:35 PM 59.0 °F 42.8 °F 55% 30.21 in 10.0 mi East 6.9 mph - N/A   Clear
11:55 PM 59.0 °F 42.8 °F 55% 30.20 in 10.0 mi ESE 6.9 mph - N/A   Clear